Wind_Speed
8 6 7 11 15 19 22 26 26 25 29 32 36 40 43 46 49 51 54 56 56 56 54 53 52 51 50 49 48 48 45 44 43 42 41 40 38 37 36 36 34 33 32 31
8 5 7 10 14 15 18 23 24 23 26 30 34 37 40 44 47 50 52 54 55 56 54 52 51 53 52 50 49 48 49 46 44 43 42 41 40 39 39 38 37 36 35 34
8 4 6 9 12 15 17 20 22 23 26 28 30 34 38 42 45 48 50 53 53 53 53 53 52 51 51 51 51 50 49 47 44 44 45 44 42 41 40 40 38 38 37 35
9 3 4 7 10 13 16 17 19 22 25 27 29 30 35 39 42 46 48 51 53 52 52 53 52 52 51 49 50 50 49 49 46 45 46 45 44 42 41 41 40 41 40 39
11 4 2 4 8 11 14 16 17 17 20 23 26 28 31 37 38 42 46 49 52 51 52 53 52 53 53 50 50 49 49 48 48 48 47 45 45 44 43 42 41 41 40 40
12 6 1 3 6 9 11 12 13 15 17 19 22 26 29 34 37 39 43 46 49 51 51 52 52 53 53 52 51 49 49 49 48 48 46 45 46 45 45 44 44 44 43 42
11 7 3 1 3 6 9 10 11 12 15 17 19 23 25 30 36 39 41 44 47 50 52 51 51 52 52 51 51 50 50 50 49 48 47 46 46 46 46 46 46 46 45 44
11 7 5 2 2 4 6 8 9 11 12 14 18 21 23 26 31 36 39 41 45 48 51 51 50 51 51 50 50 51 49 49 50 49 48 48 47 47 46 46 46 46 46 45
12 8 6 4 3 4 5 6 7 9 10 11 15 18 20 23 27 31 35 38 42 46 48 48 50 50 50 49 48 48 48 48 48 48 48 48 48 47 45 45 45 46 46 46
12 9 7 6 4 5 6 6 7 7 9 11 13 14 17 21 23 28 31 34 37 41 44 45 46 48 48 48 47 47 48 47 47 48 48 49 48 46 45 45 45 45 45 45
13 10 8 7 6 6 7 7 7 8 9 10 11 13 15 17 20 24 27 30 33 38 42 44 44 45 47 48 48 48 47 47 48 48 48 48 48 47 46 45 44 44 45 47
14 11 9 8 8 7 7 8 8 9 9 11 12 13 15 16 18 21 24 27 30 34 38 41 42 43 45 46 48 48 48 48 47 48 47 47 48 48 46 45 44 44 45 46
15 12 10 9 8 8 8 8 9 10 11 12 12 13 15 17 19 20 22 25 28 30 34 37 39 41 42 44 46 46 46 47 47 47 47 47 47 47 47 47 46 46 46 46
16 14 11 10 9 9 9 8 9 9 11 13 13 13 14 16 19 19 20 22 24 27 31 33 36 38 40 41 43 44 45 47 47 47 47 48 48 48 49 49 49 48 48 46
15 14 12 11 10 9 9 9 10 10 11 13 14 13 14 15 17 18 19 21 23 25 29 31 32 34 37 39 41 42 44 45 46 46 46 47 48 48 48 49 48 48 47 46
15 14 13 12 10 9 9 9 9 10 12 13 14 14 15 16 17 18 20 22 24 26 27 30 33 34 36 37 39 40 41 43 45 46 46 46 47 47 47 48 48 47 46 46
15 15 14 12 12 11 10 10 10 10 11 13 15 15 16 16 17 18 19 21 24 26 28 29 31 33 35 37 38 40 41 41 42 44 44 44 45 45 45 46 45 45 45 45
15 16 15 13 12 10 12 11 11 11 12 12 14 15 17 17 18 19 20 21 22 25 27 29 31 31 33 36 37 38 40 40 41 42 43 43 43 43 43 43 44 44 45 45
16 16 16 15 13 12 13 13 14 14 13 14 15 16 17 18 19 20 22 23 24 25 27 28 30 31 33 35 36 37 38 39 40 41 42 42 42 42 42 43 43 43 43 43
16 16 17 17 15 14 15 15 16 17 15 16 16 16 17 18 19 20 22 23 25 27 27 29 30 32 33 34 35 36 37 39 39 39 40 40 40 41 42 42 42 42 42 42
16 17 17 17 17 16 17 18 19 18 19 19 19 19 20 21 21 21 22 23 25 27 28 29 30 31 32 33 34 35 37 38 38 38 38 39 39 40 40 40 41 40 40 40
16 17 18 18 18 18 19 19 19 20 20 20 20 20 20 22 23 23 24 24 25 27 29 30 30 30 31 32 33 34 36 37 37 37 38 38 39 39 39 39 40 40 40 41
16 18 19 19 19 20 20 20 21 22 22 23 22 21 21 22 23 24 25 25 25 27 29 31 32 31 31 31 32 33 34 35 36 37 38 39 39 39 39 40 40 40 41 40
17 18 19 20 21 21 21 22 22 23 24 24 23 23 23 23 24 24 25 26 26 26 28 28 30 31 31 31 31 32 33 34 35 35 36 37 38 39 38 39 39 39 40 40
18 19 20 21 23 24 24 24 24 25 25 26 25 25 24 24 25 26 26 27 27 27 27 27 27 29 30 31 31 31 32 32 33 34 35 36 37 37 38 38 38 38 39 39
20 21 22 23 24 25 26 27 27 27 28 28 28 27 26 26 27 27 27 26 27 27 27 27 27 27 28 29 30 30 31 31 33 33 34 36 36 37 37 38 37 38 38 38
Wind_Direction
323 278 238 220 218 222 223 223 221 219 216 217 217 218 217 215 214 213 214 214 215 218 219 220 221 222 222 223 223 223 221 224 225 226 226 229 233 235 238 239 240 242 244 248
332 277 237 223 222 220 221 222 223 223 219 217 218 219 217 216 217 216 216 215 216 218 221 222 223 224 223 224 226 226 226 227 230 230 230 231 234 237 238 239 241 243 246 248
346 296 237 223 220 220 225 225 223 225 223 221 221 222 220 219 218 218 217 217 217 217 220 222 224 224 226 226 226 227 229 229 230 232 233 234 236 238 240 241 243 245 246 248
359 327 235 220 219 223 227 227 230 231 227 226 226 223 219 221 221 220 219 219 220 219 220 222 225 227 228 228 230 230 231 232 233 234 235 237 238 240 242 243 245 247 248 249
9 1 245 219 218 221 228 233 238 237 233 230 229 227 221 222 223 223 222 222 222 221 221 222 225 228 229 231 232 232 233 234 234 236 237 239 239 241 243 244 245 247 248 251
15 16 357 217 216 221 228 235 238 240 237 237 234 233 228 226 226 226 225 225 225 224 224 225 227 228 230 232 233 236 237 237 237 238 238 240 242 244 245 246 247 248 251 254
14 20 18 272 230 220 224 233 240 243 241 242 240 242 238 232 229 229 229 227 227 227 228 227 228 230 232 233 234 236 238 238 239 240 242 242 243 246 246 247 249 251 253 255
10 12 5 335 269 230 229 236 245 247 247 246 244 248 244 238 234 233 233 232 230 229 230 229 230 231 233 234 234 235 237 238 240 242 243 245 246 247 249 250 251 252 253 256
8 7 359 335 287 259 249 245 248 251 251 251 250 250 247 242 238 235 235 237 235 233 231 231 231 232 233 234 234 234 236 238 240 242 244 245 246 248 249 250 251 252 254 256
6 3 355 336 301 271 270 264 263 258 257 254 254 249 247 243 241 238 238 239 238 235 233 232 233 233 234 235 236 235 236 237 240 242 244 246 247 249 250 251 253 254 254 256
5 359 351 339 319 294 279 276 275 273 267 262 257 250 242 244 245 242 240 240 239 235 233 232 234 235 236 237 238 239 239 239 240 242 244 246 248 249 250 252 254 255 257 258
4 1 350 338 324 303 288 278 278 279 280 275 265 255 247 245 246 244 243 243 240 237 235 234 234 235 236 238 239 241 242 241 241 243 244 246 248 250 252 254 255 257 259 260
3 360 351 340 329 315 297 281 279 275 274 276 271 264 256 252 252 251 249 246 240 237 235 234 235 236 237 238 239 240 241 243 243 244 246 248 249 252 253 255 257 258 260 262
5 4 355 342 331 317 306 290 286 281 273 272 272 269 263 259 257 257 255 249 243 239 237 236 236 238 239 240 241 242 242 244 245 246 248 249 251 252 254 256 258 260 261 263
3 4 358 348 338 325 315 301 289 284 278 273 271 268 265 264 261 257 256 250 244 240 238 238 239 239 240 241 242 244 244 245 245 246 248 249 251 253 255 257 259 260 262 263
2 3 359 353 346 341 331 318 303 292 284 277 271 267 265 264 264 259 256 252 246 243 241 240 240 240 241 243 243 244 246 246 246 247 249 250 251 253 254 256 258 260 261 262
1 359 357 355 351 347 340 328 316 303 296 285 275 271 269 267 266 261 257 254 249 245 244 243 243 243 243 244 245 246 247 247 247 246 248 249 251 252 254 255 257 258 260 262
2 0 357 352 347 343 340 333 323 313 304 295 285 276 273 271 268 265 261 257 252 248 247 247 247 247 246 246 246 247 247 248 248 247 248 249 250 252 253 255 257 258 260 262
359 357 356 352 346 338 334 330 326 317 306 296 290 283 277 274 271 268 264 260 257 251 249 249 249 248 248 247 248 248 248 247 248 248 248 249 250 252 254 256 257 259 260 262
355 352 349 349 346 341 335 329 324 319 309 301 291 286 283 279 275 271 266 262 260 255 252 251 252 252 251 249 249 249 249 247 247 248 249 250 250 252 253 254 256 258 259 261
352 350 346 344 341 338 334 330 328 322 315 307 297 288 285 281 278 273 269 265 263 258 255 254 255 255 254 253 252 251 249 249 248 248 249 250 251 252 253 253 254 256 259 261
347 346 343 340 338 336 333 329 328 325 323 315 304 295 289 284 279 276 272 270 266 262 259 257 257 257 256 255 253 250 249 249 250 249 249 250 251 252 253 254 255 256 258 260
342 343 340 339 336 333 332 329 326 324 321 317 311 301 292 287 282 278 275 272 269 264 262 260 258 257 256 255 253 251 250 250 250 250 250 250 251 252 253 255 256 257 259 261
337 337 336 335 333 330 328 327 325 323 322 320 315 308 299 290 284 279 277 275 272 268 265 263 261 259 257 255 254 252 251 250 249 250 250 250 250 251 253 254 256 257 259 261
333 334 333 332 331 329 327 324 323 321 319 318 316 310 303 294 286 281 278 275 272 268 266 265 263 261 258 256 255 253 251 251 250 250 250 250 250 251 252 254 255 257 259 261
327 329 330 330 330 328 327 326 323 320 318 316 314 311 306 300 291 285 280 275 272 270 267 264 263 261 259 257 256 254 253 253 252 251 251 251 252 252 253 254 255 256 258 260
Height
5613 5613 5613 5615 5616 5619 5622 5626 5630 5634 5638 5643 5648 5655 5661 5668 5674 5682 5690 5698 5707 5716 5723 5730 5737 5743 5749 5756 5763 5769 5774 5779 5784 5789 5793 5798 5802 5806 5810 5812 5815 5818 5820 5822
5614 5613 5613 5615 5616 5618 5621 5625 5628 5631 5635 5640 5645 5651 5656 5663 5669 5677 5685 5693 5702 5710 5717 5724 5731 5736 5742 5748 5755 5761 5767 5772 5777 5782 5787 5791 5795 5798 5802 5805 5807 5810 5813 5815
5614 5614 5613 5615 5616 5618 5621 5623 5626 5629 5633 5637 5642 5648 5653 5658 5664 5671 5679 5687 5695 5704 5711 5718 5724 5730 5736 5742 5748 5754 5759 5764 5769 5774 5778 5782 5786 5790 5793 5797 5801 5803 5805 5807
5616 5614 5614 5615 5616 5618 5620 5622 5625 5628 5631 5635 5639 5644 5650 5654 5660 5667 5674 5682 5689 5697 5704 5711 5717 5723 5729 5735 5741 5746 5750 5756 5761 5765 5770 5774 5778 5783 5787 5790 5792 5795 5797 5799
5617 5615 5615 5616 5617 5618 5620 5622 5624 5627 5629 5633 5636 5641 5647 5650 5656 5663 5669 5675 5682 5689 5696 5703 5709 5715 5721 5726 5732 5737 5743 5748 5753 5757 5762 5766 5770 5774 5777 5780 5783 5786 5788 5790
5619 5617 5616 5617 5617 5618 5620 5622 5624 5625 5627 5631 5634 5638 5643 5647 5652 5658 5663 5669 5675 5682 5688 5695 5701 5707 5712 5718 5724 5729 5735 5740 5744 5749 5753 5756 5761 5765 5768 5771 5774 5776 5779 5781
5622 5620 5618 5617 5617 5619 5620 5622 5624 5624 5626 5629 5632 5634 5640 5643 5647 5652 5657 5662 5668 5674 5680 5687 5693 5699 5705 5711 5716 5721 5726 5731 5735 5740 5744 5748 5752 5755 5758 5761 5764 5767 5770 5772
5623 5622 5620 5618 5619 5619 5620 5621 5623 5624 5625 5627 5629 5632 5637 5639 5642 5646 5651 5656 5661 5667 5673 5679 5685 5691 5696 5701 5707 5712 5717 5722 5727 5731 5735 5739 5742 5746 5749 5752 5755 5758 5760 5763
5625 5623 5621 5619 5619 5619 5620 5621 5622 5623 5623 5625 5626 5629 5633 5634 5637 5641 5645 5649 5654 5660 5666 5671 5677 5682 5687 5692 5698 5703 5708 5713 5718 5722 5726 5729 5733 5736 5739 5742 5745 5748 5750 5753
5625 5624 5622 5620 5619 5620 5620 5620 5621 5621 5621 5622 5624 5626 5629 5630 5632 5636 5639 5643 5647 5651 5657 5663 5668 5673 5678 5683 5689 5694 5699 5703 5708 5712 5716 5720 5723 5727 5730 5733 5736 5738 5741 5743
5626 5624 5623 5620 5619 5619 5619 5620 5619 5619 5620 5621 5621 5625 5625 5626 5628 5630 5633 5636 5639 5643 5648 5654 5659 5664 5669 5674 5679 5684 5689 5694 5698 5702 5706 5710 5713 5717 5720 5723 5725 5728 5730 5732
5626 5624 5621 5620 5619 5618 5618 5618 5618 5618 5619 5618 5619 5624 5621 5622 5623 5625 5627 5629 5631 5635 5640 5645 5651 5656 5661 5665 5670 5675 5679 5684 5688 5692 5696 5700 5703 5707 5710 5712 5715 5717 5719 5721
5626 5623 5621 5619 5620 5618 5616 5616 5616 5616 5616 5616 5616 5620 5618 5618 5619 5620 5621 5622 5625 5628 5633 5638 5643 5647 5652 5656 5661 5665 5670 5674 5678 5682 5686 5690 5693 5697 5699 5702 5705 5707 5709 5711
5625 5622 5621 5620 5617 5615 5615 5614 5614 5613 5613 5613 5613 5614 5614 5614 5615 5616 5616 5617 5619 5622 5626 5630 5635 5639 5643 5647 5651 5656 5660 5664 5668 5672 5676 5680 5683 5686 5689 5692 5694 5697 5699 5700
5625 5622 5619 5617 5615 5613 5613 5612 5612 5611 5610 5610 5611 5610 5610 5610 5610 5611 5612 5613 5615 5617 5620 5624 5628 5631 5635 5639 5643 5647 5651 5654 5658 5662 5666 5669 5672 5675 5678 5681 5684 5686 5688 5689
5624 5622 5619 5617 5614 5612 5611 5610 5609 5609 5608 5607 5607 5608 5607 5606 5606 5606 5607 5608 5610 5612 5614 5617 5621 5624 5627 5630 5634 5637 5641 5645 5648 5652 5655 5658 5662 5665 5668 5670 5673 5675 5677 5679
5624 5621 5618 5616 5613 5611 5610 5609 5607 5606 5605 5604 5604 5605 5603 5603 5603 5603 5603 5603 5604 5606 5608 5611 5613 5616 5619 5622 5625 5628 5631 5634 5637 5641 5645 5648 5651 5653 5656 5659 5662 5664 5666 5668
5623 5620 5617 5615 5613 5611 5612 5607 5605 5604 5602 5601 5600 5600 5599 5599 5599 5598 5598 5598 5599 5600 5602 5604 5606 5608 5610 5613 5616 5618 5621 5624 5627 5630 5634 5637 5640 5643 5646 5648 5651 5653 5655 5657
5622 5619 5616 5614 5611 5609 5608 5605 5603 5601 5600 5598 5597 5596 5595 5594 5594 5594 5593 5593 5594 5594 5595 5596 5598 5600 5602 5604 5606 5609 5612 5614 5617 5620 5623 5626 5629 5632 5635 5638 5640 5642 5644 5646
5621 5618 5616 5612 5609 5608 5607 5603 5600 5599 5596 5594 5592 5591 5590 5589 5589 5590 5588 5588 5588 5588 5589 5590 5590 5592 5593 5595 5597 5599 5601 5604 5607 5610 5613 5616 5619 5622 5625 5627 5629 5632 5633 5635
5620 5617 5614 5611 5608 5605 5603 5600 5597 5595 5594 5589 5587 5586 5585 5584 5584 5583 5582 5581 5581 5581 5581 5582 5582 5583 5584 5586 5587 5589 5591 5594 5597 5600 5603 5606 5609 5612 5614 5617 5619 5621 5623 5625
5618 5615 5612 5608 5605 5606 5600 5596 5594 5592 5587 5584 5581 5580 5579 5578 5577 5576 5575 5574 5573 5573 5573 5574 5574 5575 5576 5577 5578 5580 5582 5585 5587 5590 5593 5596 5599 5601 5604 5606 5608 5610 5612 5614
5616 5614 5610 5607 5606 5601 5596 5593 5590 5586 5583 5579 5576 5574 5572 5571 5570 5569 5568 5567 5566 5565 5565 5565 5566 5566 5567 5568 5569 5571 5573 5575 5577 5580 5583 5586 5588 5590 5593 5595 5598 5599 5601 5602
5613 5610 5607 5604 5600 5597 5593 5589 5586 5582 5578 5574 5571 5568 5566 5564 5562 5561 5560 5559 5558 5557 5556 5556 5556 5557 5558 5559 5560 5562 5564 5566 5568 5570 5573 5575 5578 5580 5582 5584 5586 5588 5590 5591
5610 5606 5603 5600 5597 5592 5589 5585 5581 5577 5573 5569 5566 5562 5559 5557 5555 5553 5552 5550 5549 5549 5548 5548 5548 5548 5549 5550 5551 5553 5555 5556 5558 5561 5563 5565 5567 5569 5572 5574 5575 5577 5579 5580
5606 5603 5600 5597 5593 5589 5585 5580 5576 5571 5567 5563 5559 5556 5552 5549 5547 5544 5543 5541 5540 5540 5539 5539 5540 5540 5541 5541 5542 5544 5545 5547 5549 5551 5553 5555 5557 5559 5561 5563 5564 5566 5568 5569